sat.trackr.live / text

‹ back to catalog

GONETS-M 21

NORAD 47228 · 2020-091B

PAYLOAD ACTIVE UNKNOWN

§ Identity

Operator
Country
CIS
Launch date
2020-12-03
Launch site
PLMSC
Launch vehicle
Mass (kg)
RCS (m²)

External: N2YO · Heavens-Above · Gunter

§ Orbital elements

Epoch: 2026-05-25T04:46:50.409120Z

Period
115.86 min
Inclination
82.4959°
Eccentricity
0.0013876
Mean motion
12.42885687 rev/d
Perigee alt
1,483.5 km
Apogee alt
1,505.3 km
Semi-major
7,872.5 km
B*
6.7073e-4
RAAN
315.4506°
Arg perigee
243.1684°
Mean anomaly
116.7977°
Rev number
24,821

§ Raw data

GONETS-M 211 47228U 20091B   26145.19919455  .00000103  00000+0  67073-3 0  99952 47228  82.4959 315.4506 0013876 243.1684 116.7977 12.42885687248215

JSON: /api/v1/satellites/47228 · /tle

For live sub-satellite position, see the globe view (requires WebGL).

§ Visibility from observer

Set your observer location to see the next 7 days of passes ≥ 10°. The values pass through the URL so the page stays shareable.

No JS? Fill the form by hand. The geolocation button needs JavaScript.

§ Radio — SatNOGS DB

ModeDescriptionDownlinkUplink
FM UHF Unknown 388.787 MHz
FM UHF Unknown 262.910 MHz

2 transmitters · refreshed weekly from db.satnogs.org